Погода в Мирпур-Хасе

Пакистан     25°31′14″N   69°00′48″E
темп.,
°C
ветер,
м/с
пор.,
м/с
влажн.,
%
обл.,
%
осадки,
мм/ч
давл.,
гПа
погр.,
м
22 мая, вс
вс2223:00+31зюз1117520 0.0 997516
02:00+30зюз1017580 0.0 995474
05:00+29зюз814700 0.0 995373
08:00+32зюз89520 0.0 996430
11:00+43зюз45130 0.0 9951575
14:00+48з3740 0.0 9924815
17:00+43зюз1313180 0.0 9911466
20:00+34зюз1016420 0.0 993683
23 мая, пн
пн2323:00+30зюз1017650 0.0 994614
02:00+29юз1014730 0.0 992389
05:00+28юз812780 0.0 993314
08:00+33юз810510 0.0 994460
11:00+42зюз67130 0.0 9941799
14:00+46зюз8860 0.0 9913291
17:00+46з8820 0.0 9904000
20:00+36зюз1017150 0.0 993666
24 мая, вт
вт2423:00+31юз915360 0.0 995499
02:00+30юз712530 0.0 995379
05:00+29з34330 0.0 99655
08:00+33зсз44240 0.0 1000357
11:00+40сз44100 0.0 10001230
14:00+44сз3370 0.0 9993437
17:00+44зсз4460 0.0 9984052
20:00+36юз710250 0.0 1000292
25 мая, ср
ср2523:00+31зюз812600 0.0 1002485
02:00+29юз711690 0.0 1002422
05:00+28юз610700 0.0 1002330
08:00+31юз79550 0.0 1004551
11:00+39юз77280 0.0 10041207
14:00+42юз87200 0.0 10012196
17:00+41юз98250 0.0 9992193
20:00+34юз911460 0.0 1001724
26 мая, чт
чт2623:00+30юз913670 0.0 1002603
02:00+29юз915730 0.0 1000588
05:00+28юз914770 0.0 1000623
08:00+31юз1113630 0.0 1001700
11:00+38юз910340 0.0 10001194
14:00+43юз109220 0.0 9971660
17:00+40юз1010270 0.0 9961444
20:00+32юз1114580 0.0 998714